Zurück zum Katalog

YAOGAN-39 02C

AktivMilitärVLEO
NORAD 57890·PAYLOAD·🇨🇳 China

Gestartet Sep 17, 2023 von Xichang Satellite Launch Center

Loading…

Nächste Überflüge (nächste 24 Stunden)

TLE

AktuellSource: Space-Track

Epoche: Sep 14, 2026, 14:17 UTC

1 57890U 23145E   26257.59517054  .00004665  00000-0  23260-3 0  9999
2 57890  34.9946  27.2082 0002060 278.1667  81.8813 15.16952840166443

Verfolge YAOGAN-39 02C in Echtzeit mit AllMySat

Download on the App Store